Location: Newark
(46.7636°N, 1.8358°W)
Time: 12:01:26
(UTC+00:00)

Vanguard 1 Rocket - Pass Details

Date: 27 October 2019
Orbit: 651 x 4226 km, 34.3° (Epoch: 21 November)

Event Time Altitude Azimuth Distance (km) Brightness Sun altitude
Rises 16:55:24 0° 277° (W) 7,654 13.5 -0.1°
Reaches altitude 10° 17:03:51 10° 260° (W) 7,112 14.0 -1.4°
Maximum altitude 17:15:45 16° 231° (SW) 6,884 13.1 -3.4°
Drops below altitude 10° 17:28:04 10° 201° (SSW) 7,260 12.5 -5.4°
Sets 17:37:14 0° 183° (S) 7,860 12.4 -7.0°
